{"data":{"norad_id":48658,"intl_designator":"2021-044W","name":"STARLINK-2647","alt_names":[],"object_type":"PAYLOAD","status":"ACTIVE","operator":null,"country":"US","launch_date":"2021-05-26","launch_site_code":"AFETR","launch_vehicle":null,"mission":null,"orbit_class":"UNKNOWN","rcs_meters":null,"size_class":null,"mass_kg":null,"dimensions":null,"purposes":["comms"],"wikipedia_slug":null,"has_3d_model":false,"image_url":null,"decayed_at":null,"tle_current":{"epoch":"2026-09-19T17:57:23.010336Z","epoch_age_seconds":102235,"freshness":"FRESH","line1":"1 48658U 21044W   26262.74818299  .00000072  00000+0  14079-4 0  9991","line2":"2 48658  53.1604 291.3633 0001592  60.4680 299.6480 15.31699383293550","mean_motion":15.31699383,"eccentricity":0.0001592,"inclination_deg":53.1604,"raan_deg":291.3633,"arg_perigee_deg":60.468,"mean_anomaly_deg":299.648,"bstar":1.4079e-5,"rev_number":29355,"period_min":94.013225831534,"perigee_km":469.65149296071,"apogee_km":471.83217598161,"semimajor_km":6848.8788344712,"source":"CELESTRAK","updated_at":"2026-09-20T09:00:39.143035Z"}}}